| time (UTC) | temp F | wind direction | speed MPH | gust MPH | rain 1hr in | rain 24hr in | rain mn in | humidity % | barometer mb |
| 20260906123631 | 80 | 223 | 2.0 | 5.0 | 0.00 | 0.00 | 0.00 | 91 | 1010.3 |
| 20260906123130 | 80 | 230 | 2.0 | 7.0 | 0.00 | 0.00 | 0.00 | 91 | 1010.3 |
| 20260906122131 | 79 | 218 | 4.0 | 7.0 | 0.00 | 0.00 | 0.00 | 91 | 1010.3 |
| 20260906121630 | 79 | 233 | 3.0 | 7.0 | 0.00 | 0.00 | 0.00 | 91 | 1010.3 |
| 20260906121131 | 79 | 223 | 1.0 | 6.0 | 0.00 | 0.00 | 0.00 | 91 | 1010.3 |
| 20260906120630 | 79 | 223 | 1.0 | 3.0 | 0.00 | 0.00 | 0.00 | 91 | 1010.5 |
| 20260906120130 | 79 | 223 | 1.0 | 2.0 | 0.00 | 0.00 | 0.00 | 91 | 1010.5 |
| 20260906115630 | 79 | 223 | 1.0 | 3.0 | 0.00 | 0.00 | 0.00 | 91 | 1010.5 |
| 20260906115130 | 78 | 223 | 1.0 | 2.0 | 0.00 | 0.00 | 0.00 | 91 | 1010.6 |
| 20260906114630 | 78 | 224 | 1.0 | 2.0 | 0.00 | 0.00 | 0.00 | 91 | 1010.6 |
| 20260906114130 | 78 | 223 | 0.0 | 0.0 | 0.00 | 0.00 | 0.00 | 91 | 1010.6 |
| 20260906113630 | 78 | 223 | 0.0 | 0.0 | 0.00 | 0.00 | 0.00 | 91 | 1010.6 |
| 20260906113130 | 78 | 223 | 0.0 | 1.0 | 0.00 | 0.00 | 0.00 | 91 | 1010.6 |
| 20260906112630 | 78 | 223 | 0.0 | 1.0 | 0.00 | 0.00 | 0.00 | 90 | 1010.5 |
| 20260906110129 | 79 | 223 | 1.0 | 3.0 | 0.00 | 0.00 | 0.00 | 90 | 1009.8 |
| 20260906105630 | 79 | 223 | 0.0 | 3.0 | 0.00 | 0.00 | 0.00 | 90 | 1009.7 |
| 20260906105131 | 79 | 223 | 1.0 | 3.0 | 0.00 | 0.00 | 0.00 | 90 | 1009.5 |
| 20260906104630 | 79 | 223 | 2.0 | 3.0 | 0.00 | 0.00 | 0.00 | 90 | 1009.5 |
| 20260906104130 | 79 | 223 | 1.0 | 3.0 | 0.00 | 0.00 | 0.00 | 90 | 1009.4 |
| 20260906103631 | 79 | 223 | 2.0 | 3.0 | 0.00 | 0.00 | 0.00 | 90 | 1009.4 |
| 20260906103131 | 79 | 223 | 2.0 | 3.0 | 0.00 | 0.00 | 0.00 | 90 | 1009.4 |
| 20260906102631 | 79 | 223 | 0.0 | 1.0 | 0.00 | 0.00 | 0.00 | 90 | 1009.4 |
| 20260906102130 | 79 | 223 | 1.0 | 2.0 | 0.00 | 0.00 | 0.00 | 90 | 1009.5 |
| 20260906101630 | 79 | 223 | 2.0 | 3.0 | 0.00 | 0.00 | 0.00 | 90 | 1009.5 |
| 20260906101131 | 79 | 223 | 1.0 | 3.0 | 0.00 | 0.00 | 0.00 | 90 | 1009.4 |
| 20260906100630 | 80 | 223 | 1.0 | 3.0 | 0.00 | 0.00 | 0.00 | 90 | 1009.4 |
| 20260906100130 | 80 | 223 | 1.0 | 5.0 | 0.00 | 0.00 | 0.00 | 90 | 1009.3 |
| 20260906095630 | 80 | 233 | 1.0 | 3.0 | 0.00 | 0.00 | 0.00 | 90 | 1009.3 |
| 20260906095130 | 80 | 233 | 1.0 | 3.0 | 0.00 | 0.00 | 0.00 | 90 | 1009.3 |
| 20260906094630 | 80 | 233 | 1.0 | 5.0 | 0.00 | 0.00 | 0.00 | 90 | 1009.2 |
| 20260906094130 | 80 | 235 | 1.0 | 3.0 | 0.00 | 0.00 | 0.00 | 89 | 1009.2 |
| 20260906093630 | 80 | 235 | 1.0 | 3.0 | 0.00 | 0.00 | 0.00 | 89 | 1009.2 |
| 20260906093130 | 80 | 237 | 2.0 | 3.0 | 0.00 | 0.00 | 0.00 | 89 | 1009.3 |
| 20260906092630 | 80 | 233 | 2.0 | 5.0 | 0.00 | 0.00 | 0.00 | 89 | 1009.3 |
| 20260906091630 | 80 | 213 | 2.0 | 5.0 | 0.00 | 0.00 | 0.00 | 89 | 1009.2 |
| 20260906090630 | 80 | 215 | 2.0 | 6.0 | 0.00 | 0.00 | 0.00 | 89 | 1009.2 |
| 20260906090130 | 80 | 215 | 3.0 | 5.0 | 0.00 | 0.00 | 0.00 | 89 | 1009.2 |
| 20260906085630 | 80 | 230 | 2.0 | 3.0 | 0.00 | 0.00 | 0.00 | 89 | 1009.2 |
| 20260906085130 | 80 | 230 | 2.0 | 5.0 | 0.00 | 0.00 | 0.00 | 88 | 1009.1 |
| 20260906084130 | 81 | 221 | 2.0 | 5.0 | 0.00 | 0.00 | 0.00 | 88 | 1009.2 |
| 20260906083131 | 81 | 226 | 0.0 | 2.0 | 0.00 | 0.00 | 0.00 | 88 | 1009.1 |
| 20260906082630 | 81 | 226 | 0.0 | 1.0 | 0.00 | 0.00 | 0.00 | 88 | 1009.2 |
| 20260906082131 | 81 | 226 | 0.0 | 1.0 | 0.00 | 0.00 | 0.00 | 88 | 1009.0 |
| 20260906081631 | 81 | 226 | 1.0 | 2.0 | 0.00 | 0.00 | 0.00 | 88 | 1009.0 |
| 20260906081130 | 81 | 226 | 0.0 | 3.0 | 0.00 | 0.00 | 0.00 | 88 | 1009.0 |
| 20260906080130 | 81 | 226 | 2.0 | 5.0 | 0.00 | 0.00 | 0.00 | 88 | 1009.0 |
| 20260906074630 | 81 | 218 | 2.0 | 3.0 | 0.00 | 0.00 | 0.00 | 87 | 1009.2 |
| 20260906074130 | 81 | 218 | 1.0 | 3.0 | 0.00 | 0.00 | 0.00 | 87 | 1009.1 |
| 20260906073130 | 81 | 217 | 1.0 | 3.0 | 0.00 | 0.00 | 0.00 | 87 | 1009.2 |
| 20260906072630 | 81 | 216 | 2.0 | 5.0 | 0.00 | 0.00 | 0.00 | 87 | 1009.2 |
| 20260906071630 | 81 | 214 | 2.0 | 6.0 | 0.00 | 0.00 | 0.00 | 87 | 1009.2 |
| 20260906071130 | 81 | 234 | 2.0 | 3.0 | 0.00 | 0.00 | 0.00 | 87 | 1009.2 |
| 20260906070630 | 81 | 229 | 2.0 | 6.0 | 0.00 | 0.00 | 0.00 | 87 | 1009.1 |
| 20260906070131 | 81 | 228 | 4.0 | 7.0 | 0.00 | 0.00 | 0.00 | 87 | 1009.1 |
| 20260906064630 | 81 | 222 | 4.0 | 7.0 | 0.00 | 0.00 | 0.00 | 87 | 1009.3 |
| 20260906064130 | 81 | 217 | 2.0 | 5.0 | 0.00 | 0.00 | 0.00 | 87 | 1009.4 |
| 20260906063630 | 82 | 230 | 1.0 | 6.0 | 0.00 | 0.00 | 0.00 | 87 | 1009.3 |
| 20260906063131 | 82 | 231 | 2.0 | 7.0 | 0.00 | 0.00 | 0.00 | 87 | 1009.3 |
| 20260906062630 | 81 | 227 | 3.0 | 8.0 | 0.00 | 0.00 | 0.00 | 87 | 1009.5 |
| 20260906061630 | 81 | 224 | 3.0 | 6.0 | 0.00 | 0.00 | 0.00 | 87 | 1009.4 |
| 20260906060630 | 82 | 219 | 3.0 | 8.0 | 0.00 | 0.00 | 0.00 | 88 | 1009.7 |
| 20260906060130 | 81 | 207 | 3.0 | 6.0 | 0.00 | 0.00 | 0.00 | 88 | 1009.7 |
| 20260906055631 | 81 | 228 | 3.0 | 5.0 | 0.00 | 0.00 | 0.00 | 88 | 1009.8 |
| 20260906055131 | 82 | 226 | 1.0 | 3.0 | 0.00 | 0.00 | 0.00 | 88 | 1009.8 |
| 20260906054630 | 82 | 226 | 2.0 | 3.0 | 0.00 | 0.00 | 0.00 | 88 | 1009.9 |
| 20260906054130 | 82 | 226 | 2.0 | 3.0 | 0.00 | 0.00 | 0.00 | 88 | 1009.8 |
| 20260906053630 | 82 | 226 | 2.0 | 3.0 | 0.00 | 0.00 | 0.00 | 88 | 1009.8 |
| 20260906053130 | 82 | 222 | 3.0 | 7.0 | 0.00 | 0.00 | 0.00 | 88 | 1009.9 |
| 20260906052630 | 82 | 173 | 1.0 | 6.0 | 0.00 | 0.00 | 0.00 | 88 | 1009.9 |
| 20260906052130 | 82 | 172 | 2.0 | 5.0 | 0.00 | 0.00 | 0.00 | 89 | 1009.9 |
| 20260906051630 | 82 | 172 | 3.0 | 6.0 | 0.00 | 0.00 | 0.00 | 89 | 1009.9 |
| 20260906051130 | 82 | 171 | 2.0 | 6.0 | 0.00 | 0.00 | 0.00 | 89 | 1009.8 |
| 20260906050631 | 82 | 170 | 1.0 | 5.0 | 0.00 | 0.00 | 0.00 | 89 | 1009.9 |
| 20260906050131 | 82 | 170 | 2.0 | 5.0 | 0.00 | 0.00 | 0.00 | 89 | 1010.0 |
| 20260906045630 | 82 | 169 | 3.0 | 5.0 | 0.00 | 0.00 | 0.00 | 89 | 1009.9 |
| 20260906045131 | 82 | 168 | 2.0 | 5.0 | 0.00 | 0.00 | 0.00 | 89 | 1010.0 |
| 20260906044631 | 82 | 168 | 2.0 | 5.0 | 0.00 | 0.00 | 0.00 | 89 | 1009.9 |
| 20260906044130 | 82 | 168 | 3.0 | 6.0 | 0.00 | 0.00 | 0.00 | 89 | 1009.9 |
| 20260906043630 | 82 | 168 | 2.0 | 7.0 | 0.00 | 0.00 | 0.00 | 89 | 1009.9 |
| 20260906043130 | 82 | 168 | 2.0 | 6.0 | 0.00 | 0.00 | 0.00 | 89 | 1009.9 |
| 20260906042630 | 82 | 168 | 2.0 | 6.0 | 0.00 | 0.00 | 0.00 | 89 | 1009.9 |
| 20260906042130 | 82 | 167 | 3.0 | 6.0 | 0.00 | 0.00 | 0.00 | 89 | 1010.0 |
| 20260906041630 | 82 | 166 | 3.0 | 7.0 | 0.00 | 0.00 | 0.00 | 89 | 1010.0 |
| 20260906041130 | 82 | 166 | 3.0 | 5.0 | 0.00 | 0.00 | 0.00 | 89 | 1010.2 |
| 20260906040630 | 83 | 166 | 3.0 | 6.0 | 0.00 | 0.00 | 0.00 | 89 | 1010.2 |
| 20260906040130 | 83 | 166 | 3.0 | 6.0 | 0.00 | 0.00 | 0.00 | 89 | 1010.3 |
| 20260906035130 | 83 | 171 | 2.0 | 5.0 | 0.00 | 0.00 | 0.00 | 89 | 1010.3 |
| 20260906034631 | 83 | 171 | 2.0 | 5.0 | 0.00 | 0.01 | 0.00 | 89 | 1010.4 |
| 20260906034130 | 83 | 171 | 3.0 | 5.0 | 0.00 | 0.01 | 0.00 | 89 | 1010.5 |
| 20260906033630 | 83 | 171 | 1.0 | 5.0 | 0.00 | 0.01 | 0.00 | 89 | 1010.5 |
| 20260906033131 | 83 | 171 | 2.0 | 5.0 | 0.00 | 0.01 | 0.00 | 88 | 1010.6 |
| 20260906032631 | 83 | 171 | 1.0 | 5.0 | 0.00 | 0.01 | 0.00 | 88 | 1010.6 |
| 20260906032131 | 83 | 170 | 2.0 | 5.0 | 0.00 | 0.01 | 0.00 | 88 | 1010.6 |
| 20260906031630 | 83 | 170 | 2.0 | 5.0 | 0.00 | 0.01 | 0.00 | 88 | 1010.6 |
| 20260906031131 | 83 | 170 | 3.0 | 5.0 | 0.00 | 0.01 | 0.00 | 88 | 1010.6 |
| 20260906030630 | 83 | 170 | 3.0 | 5.0 | 0.00 | 0.01 | 0.00 | 88 | 1010.6 |
| 20260906025630 | 83 | 170 | 2.0 | 5.0 | 0.00 | 0.01 | 0.00 | 87 | 1010.8 |
| 20260906025130 | 83 | 170 | 4.0 | 6.0 | 0.00 | 0.01 | 0.00 | 87 | 1010.8 |
| 20260906024630 | 83 | 170 | 3.0 | 6.0 | 0.00 | 0.01 | 0.00 | 87 | 1010.7 |
| 20260906024130 | 83 | 170 | 2.0 | 7.0 | 0.00 | 0.01 | 0.00 | 87 | 1010.6 |
| 20260906023630 | 83 | 170 | 2.0 | 5.0 | 0.00 | 0.01 | 0.00 | 87 | 1010.7 |
| 20260906023130 | 82 | 170 | 3.0 | 5.0 | 0.00 | 0.01 | 0.00 | 86 | 1010.7 |
| 20260906022630 | 82 | 170 | 2.0 | 6.0 | 0.00 | 0.01 | 0.00 | 86 | 1010.5 |
| 20260906022131 | 82 | 170 | 3.0 | 5.0 | 0.00 | 0.01 | 0.00 | 86 | 1010.5 |
| 20260906020630 | 82 | 170 | 2.0 | 3.0 | 0.00 | 0.01 | 0.00 | 86 | 1010.4 |
| 20260906020130 | 82 | 170 | 2.0 | 5.0 | 0.00 | 0.01 | 0.00 | 86 | 1010.3 |
| 20260906015630 | 82 | 170 | 0.0 | 2.0 | 0.00 | 0.01 | 0.00 | 86 | 1010.3 |
| 20260906015131 | 83 | 170 | 1.0 | 3.0 | 0.00 | 0.01 | 0.00 | 86 | 1010.4 |
| 20260906013630 | 83 | 170 | 0.0 | 1.0 | 0.00 | 0.01 | 0.00 | 85 | 1010.1 |
| 20260906013131 | 83 | 170 | 0.0 | 3.0 | 0.00 | 0.01 | 0.00 | 85 | 1009.9 |
| 20260906012631 | 83 | 170 | 2.0 | 5.0 | 0.00 | 0.01 | 0.00 | 85 | 1009.8 |
| 20260906011630 | 83 | 170 | 3.0 | 6.0 | 0.00 | 0.01 | 0.00 | 85 | 1009.5 |
| 20260906011130 | 83 | 173 | 3.0 | 6.0 | 0.00 | 0.01 | 0.00 | 85 | 1009.6 |
| 20260906010630 | 83 | 172 | 3.0 | 7.0 | 0.00 | 0.01 | 0.00 | 85 | 1009.6 |
| 20260906010130 | 83 | 155 | 2.0 | 3.0 | 0.00 | 0.01 | 0.00 | 86 | 1009.7 |
| 20260906005130 | 83 | 155 | 2.0 | 3.0 | 0.00 | 0.01 | 0.00 | 86 | 1009.5 |
| 20260906004630 | 83 | 155 | 0.0 | 1.0 | 0.00 | 0.01 | 0.00 | 86 | 1009.5 |
| 20260906004131 | 83 | 155 | 0.0 | 0.0 | 0.00 | 0.01 | 0.00 | 85 | 1009.5 |
| 20260906003630 | 83 | 155 | 0.0 | 0.0 | 0.00 | 0.01 | 0.00 | 85 | 1009.4 |
| 20260906003130 | 84 | 155 | 0.0 | 0.0 | 0.00 | 0.01 | 0.00 | 85 | 1009.3 |
| 20260906002630 | 84 | 155 | 0.0 | 1.0 | 0.00 | 0.01 | 0.00 | 85 | 1009.2 |
| 20260906001630 | 84 | 155 | 0.0 | 1.0 | 0.00 | 0.01 | 0.00 | 86 | 1008.9 |
| 20260906000130 | 85 | 155 | 0.0 | 1.0 | 0.00 | 0.01 | 0.00 | 85 | 1009.1 |
| 20260905235631 | 85 | 155 | 0.0 | 2.0 | 0.00 | 0.01 | 0.00 | 85 | 1008.9 |
| 20260905235130 | 86 | 155 | 0.0 | 1.0 | 0.00 | 0.01 | 0.00 | 85 | 1008.9 |
| 20260905234631 | 86 | 155 | 0.0 | 2.0 | 0.00 | 0.01 | 0.00 | 85 | 1009.0 |
| 20260905234131 | 86 | 155 | 1.0 | 3.0 | 0.00 | 0.01 | 0.00 | 84 | 1009.1 |
| 20260905233631 | 87 | 155 | 0.0 | 3.0 | 0.00 | 0.02 | 0.00 | 83 | 1009.1 |
| 20260905233130 | 87 | 155 | 2.0 | 6.0 | 0.00 | 0.02 | 0.00 | 83 | 1009.1 |
| 20260905232130 | 87 | 169 | 3.0 | 6.0 | 0.00 | 0.04 | 0.00 | 82 | 1009.0 |
| 20260905231130 | 88 | 150 | 3.0 | 7.0 | 0.00 | 0.07 | 0.00 | 82 | 1009.0 |
| 20260905230630 | 88 | 157 | 3.0 | 6.0 | 0.00 | 0.09 | 0.00 | 82 | 1009.1 |
| 20260905230130 | 88 | 163 | 6.0 | 10.0 | 0.00 | 0.11 | 0.00 | 81 | 1009.1 |
| 20260905225630 | 88 | 163 | 3.0 | 5.0 | 0.00 | 0.12 | 0.00 | 81 | 1009.2 |
| 20260905225130 | 88 | 146 | 0.0 | 1.0 | 0.00 | 0.15 | 0.00 | 81 | 1009.2 |
| 20260905224630 | 88 | 150 | 1.0 | 7.0 | 0.00 | 0.18 | 0.00 | 81 | 1009.3 |
| 20260905224130 | 89 | 173 | 1.0 | 5.0 | 0.00 | 0.25 | 0.00 | 81 | 1009.4 |
| 20260905223630 | 89 | 167 | 3.0 | 8.0 | 0.00 | 0.34 | 0.00 | 80 | 1009.4 |
| 20260905222630 | 90 | 164 | 3.0 | 6.0 | 0.00 | 1.03 | 0.00 | 79 | 1009.6 |
| 20260905222130 | 90 | 157 | 1.0 | 7.0 | 0.00 | 1.11 | 0.00 | 79 | 1009.6 |
| 20260905221630 | 91 | 167 | 5.0 | 10.0 | 0.00 | 1.11 | 0.00 | 79 | 1009.6 |
| 20260905221130 | 91 | 145 | 0.0 | 1.0 | 0.00 | 1.11 | 0.00 | 79 | 1009.6 |
| 20260905220631 | 91 | 146 | 1.0 | 10.0 | 0.00 | 1.12 | 0.00 | 78 | 1009.5 |
| 20260905220130 | 92 | 167 | 0.0 | 7.0 | 0.00 | 1.12 | 0.00 | 78 | 1009.5 |
| 20260905215130 | 91 | 190 | 0.0 | 5.0 | 0.00 | 1.12 | 0.00 | 79 | 1009.6 |
| 20260905214630 | 91 | 163 | 0.0 | 2.0 | 0.00 | 1.13 | 0.00 | 79 | 1009.6 |
| 20260905214130 | 91 | 166 | 0.0 | 3.0 | 0.00 | 1.14 | 0.00 | 79 | 1009.7 |
| 20260905213630 | 90 | 162 | 0.0 | 2.0 | 0.00 | 1.15 | 0.00 | 79 | 1009.8 |
| 20260905213130 | 90 | 186 | 0.0 | 6.0 | 0.00 | 1.16 | 0.00 | 80 | 1009.8 |
| 20260905212630 | 90 | 167 | 5.0 | 7.0 | 0.00 | 1.18 | 0.00 | 81 | 1009.8 |
| 20260905212130 | 90 | 216 | 0.0 | 3.0 | 0.00 | 1.24 | 0.00 | 80 | 1009.7 |
| 20260905211130 | 90 | 213 | 4.0 | 8.0 | 0.00 | 1.33 | 0.00 | 78 | 1009.8 |
| 20260905210630 | 91 | 210 | 6.0 | 10.0 | 0.00 | 1.34 | 0.00 | 77 | 1009.8 |
| 20260905210130 | 91 | 223 | 0.0 | 2.0 | 0.00 | 1.35 | 0.00 | 77 | 1009.8 |
| 20260905205630 | 91 | 223 | 0.0 | 0.0 | 0.00 | 1.36 | 0.00 | 75 | 1009.7 |
| 20260905205131 | 91 | 223 | 1.0 | 3.0 | 0.00 | 1.37 | 0.00 | 74 | 1009.8 |
| 20260905204630 | 91 | 223 | 0.0 | 3.0 | 0.00 | 1.38 | 0.00 | 74 | 1009.8 |
| 20260905204130 | 91 | 223 | 0.0 | 0.0 | 0.00 | 1.38 | 0.00 | 75 | 1009.7 |
| 20260905203630 | 91 | 223 | 1.0 | 7.0 | 0.00 | 1.39 | 0.00 | 75 | 1009.8 |
| 20260905203130 | 91 | 213 | 0.0 | 1.0 | 0.00 | 1.39 | 0.00 | 76 | 1009.6 |
| 20260905202630 | 91 | 213 | 1.0 | 3.0 | 0.00 | 1.41 | 0.00 | 76 | 1009.5 |
| 20260905202131 | 91 | 221 | 0.0 | 1.0 | 0.00 | 1.43 | 0.00 | 75 | 1009.4 |
| 20260905201131 | 91 | 224 | 1.0 | 7.0 | 0.00 | 1.44 | 0.00 | 76 | 1009.7 |
| 20260905200631 | 91 | 255 | 0.0 | 0.0 | 0.00 | 1.44 | 0.00 | 76 | 1009.7 |
| 20260905200130 | 91 | 255 | 0.0 | 0.0 | 0.00 | 1.44 | 0.00 | 76 | 1009.7 |
| 20260905195631 | 91 | 299 | 0.0 | 2.0 | 0.00 | 1.45 | 0.00 | 76 | 1009.8 |
| 20260905195130 | 91 | 229 | 0.0 | 5.0 | 0.00 | 1.45 | 0.00 | 76 | 1009.8 |
| 20260905194630 | 91 | 235 | 0.0 | 2.0 | 0.00 | 1.45 | 0.00 | 76 | 1009.8 |
| 20260905193630 | 91 | 218 | 1.0 | 6.0 | 0.00 | 1.46 | 0.00 | 75 | 1009.7 |
| 20260905193130 | 91 | 233 | 0.0 | 1.0 | 0.00 | 1.47 | 0.00 | 77 | 1009.9 |
| 20260905192630 | 91 | 233 | 0.0 | 7.0 | 0.00 | 1.48 | 0.00 | 76 | 1010.1 |
| 20260905192131 | 91 | 225 | 0.0 | 7.0 | 0.00 | 1.50 | 0.00 | 77 | 1010.3 |
| 20260905191630 | 91 | 218 | 0.0 | 3.0 | 0.00 | 1.51 | 0.00 | 76 | 1010.4 |
| 20260905191131 | 92 | 235 | 1.0 | 9.0 | 0.00 | 1.53 | 0.00 | 76 | 1010.5 |
| 20260905190631 | 92 | 11 | 0.0 | 8.0 | 0.00 | 1.54 | 0.00 | 74 | 1010.3 |
| 20260905190130 | 92 | 232 | 3.0 | 14.0 | 0.00 | 1.55 | 0.00 | 75 | 1010.2 |
| 20260905185130 | 92 | 245 | 0.0 | 2.0 | 0.00 | 1.55 | 0.00 | 75 | 1010.2 |
| 20260905184631 | 92 | 5 | 1.0 | 8.0 | 0.00 | 1.55 | 0.00 | 77 | 1010.2 |
| 20260905184130 | 92 | 226 | 0.0 | 5.0 | 0.00 | 1.55 | 0.00 | 75 | 1010.3 |
| 20260905183630 | 91 | 226 | 1.0 | 5.0 | 0.00 | 1.55 | 0.00 | 75 | 1010.5 |
| 20260905182630 | 91 | 313 | 0.0 | 1.0 | 0.00 | 1.55 | 0.00 | 78 | 1010.5 |
| 20260905181631 | 91 | 325 | 0.0 | 1.0 | 0.00 | 1.55 | 0.00 | 78 | 1010.7 |
| 20260905181130 | 91 | 264 | 0.0 | 1.0 | 0.00 | 1.55 | 0.00 | 77 | 1010.8 |
| 20260905180131 | 90 | 210 | 3.0 | 8.0 | 0.00 | 1.55 | 0.00 | 75 | 1010.8 |
| 20260905175630 | 90 | 22 | 0.0 | 3.0 | 0.00 | 1.55 | 0.00 | 79 | 1010.8 |
| 20260905175130 | 90 | 13 | 0.0 | 1.0 | 0.00 | 1.55 | 0.00 | 79 | 1011.0 |
| 20260905174631 | 89 | 223 | 1.0 | 5.0 | 0.00 | 1.57 | 0.00 | 81 | 1011.1 |
| 20260905174130 | 89 | 344 | 0.0 | 3.0 | 0.00 | 1.72 | 0.00 | 80 | 1011.2 |
| 20260905173630 | 90 | 31 | 0.0 | 1.0 | 0.00 | 1.76 | 0.00 | 80 | 1011.2 |
| 20260905173131 | 89 | 346 | 1.0 | 8.0 | 0.00 | 1.76 | 0.00 | 82 | 1011.4 |
| 20260905172130 | 88 | 26 | 0.0 | 3.0 | 0.00 | 1.76 | 0.00 | 81 | 1011.4 |
| 20260905171630 | 88 | 230 | 1.0 | 12.0 | 0.00 | 1.76 | 0.00 | 81 | 1011.5 |
| 20260905171130 | 87 | 198 | 2.0 | 12.0 | 0.00 | 1.76 | 0.00 | 83 | 1011.7 |
| 20260905170630 | 87 | 340 | 2.0 | 5.0 | 0.00 | 1.76 | 0.00 | 83 | 1011.8 |
| 20260905170130 | 86 | 305 | 1.0 | 3.0 | 0.00 | 1.76 | 0.00 | 83 | 1012.0 |
| 20260905165630 | 86 | 24 | 2.0 | 5.0 | 0.00 | 1.76 | 0.00 | 83 | 1012.1 |
| 20260905165131 | 87 | 10 | 3.0 | 9.0 | 0.00 | 1.76 | 0.00 | 83 | 1012.2 |
| 20260905164630 | 87 | 22 | 3.0 | 7.0 | 0.00 | 1.76 | 0.00 | 82 | 1012.2 |
| 20260905164130 | 87 | 8 | 4.0 | 9.0 | 0.00 | 1.76 | 0.00 | 81 | 1012.3 |
| 20260905163630 | 87 | 26 | 2.0 | 5.0 | 0.00 | 1.76 | 0.00 | 82 | 1012.3 |
| 20260905163130 | 87 | 15 | 0.0 | 0.0 | 0.00 | 1.76 | 0.00 | 83 | 1012.4 |
| 20260905162630 | 87 | 315 | 1.0 | 3.0 | 0.00 | 1.76 | 0.00 | 82 | 1012.4 |
| 20260905161630 | 87 | 349 | 1.0 | 9.0 | 0.00 | 1.76 | 0.00 | 82 | 1012.5 |
| 20260905161130 | 86 | 229 | 2.0 | 5.0 | 0.00 | 1.76 | 0.00 | 82 | 1012.6 |
| 20260905160630 | 86 | 23 | 2.0 | 5.0 | 0.00 | 1.76 | 0.00 | 83 | 1012.7 |
| 20260905155631 | 85 | 26 | 2.0 | 5.0 | 0.00 | 1.76 | 0.00 | 84 | 1012.9 |
| 20260905155129 | 85 | 293 | 1.0 | 3.0 | 0.00 | 1.76 | 0.00 | 84 | 1012.9 |
| 20260905154630 | 86 | 5 | 1.0 | 3.0 | 0.00 | 1.76 | 0.00 | 84 | 1013.0 |
| 20260905154130 | 85 | 251 | 2.0 | 7.0 | 0.00 | 1.76 | 0.00 | 84 | 1012.9 |
| 20260905153131 | 85 | 311 | 0.0 | 3.0 | 0.00 | 1.76 | 0.00 | 86 | 1012.9 |
| 20260905152631 | 84 | 223 | 0.0 | 6.0 | 0.00 | 1.76 | 0.00 | 86 | 1012.9 |
| 20260905151630 | 84 | 328 | 1.0 | 3.0 | 0.00 | 1.76 | 0.00 | 87 | 1013.0 |
| 20260905151130 | 83 | 36 | 1.0 | 3.0 | 0.00 | 1.76 | 0.00 | 90 | 1013.1 |
| 20260905150630 | 83 | 305 | 1.0 | 3.0 | 0.00 | 1.76 | 0.00 | 90 | 1013.1 |
| 20260905150130 | 83 | 348 | 1.0 | 3.0 | 0.00 | 1.76 | 0.00 | 91 | 1013.1 |
| 20260905145630 | 83 | 306 | 2.0 | 3.0 | 0.00 | 1.76 | 0.00 | 92 | 1013.1 |
| 20260905145130 | 82 | 42 | 0.0 | 3.0 | 0.00 | 1.76 | 0.00 | 93 | 1013.1 |
| 20260905144630 | 82 | 224 | 0.0 | 2.0 | 0.00 | 1.76 | 0.00 | 93 | 1013.1 |
| 20260905143631 | 82 | 224 | 1.0 | 2.0 | 0.00 | 1.76 | 0.00 | 94 | 1013.2 |
| 20260905142631 | 81 | 234 | 0.0 | 3.0 | 0.00 | 1.76 | 0.00 | 94 | 1013.1 |
| 20260905142131 | 81 | 298 | 1.0 | 3.0 | 0.00 | 1.76 | 0.00 | 95 | 1013.0 |
| 20260905141630 | 81 | 324 | 1.0 | 2.0 | 0.00 | 1.76 | 0.00 | 95 | 1013.1 |
| 20260905141130 | 81 | 325 | 1.0 | 3.0 | 0.00 | 1.76 | 0.00 | 95 | 1013.1 |
| 20260905140631 | 81 | 242 | 2.0 | 6.0 | 0.00 | 1.76 | 0.00 | 95 | 1013.2 |
| 20260905140131 | 81 | 245 | 1.0 | 3.0 | 0.00 | 1.76 | 0.00 | 95 | 1013.1 |
| 20260905135631 | 81 | 272 | 0.0 | 3.0 | 0.00 | 1.76 | 0.00 | 95 | 1013.1 |
| 20260905135130 | 80 | 242 | 1.0 | 3.0 | 0.00 | 1.76 | 0.00 | 95 | 1013.0 |
| 20260905134630 | 80 | 206 | 0.0 | 3.0 | 0.00 | 1.76 | 0.00 | 95 | 1013.0 |
| 20260905134130 | 80 | 262 | 0.0 | 2.0 | 0.00 | 1.76 | 0.00 | 95 | 1012.9 |
| 20260905133130 | 80 | 204 | 2.0 | 3.0 | 0.00 | 1.76 | 0.00 | 95 | 1013.0 |
| 20260905132630 | 79 | 204 | 0.0 | 3.0 | 0.00 | 1.76 | 0.00 | 95 | 1013.0 |
| 20260905131631 | 79 | 200 | 1.0 | 6.0 | 0.00 | 1.76 | 0.00 | 95 | 1013.1 |
| 20260905130630 | 79 | 154 | 0.0 | 0.0 | 0.00 | 1.76 | 0.00 | 95 | 1013.0 |
| 20260905125630 | 78 | 154 | 0.0 | 0.0 | 0.00 | 1.76 | 0.00 | 95 | 1012.9 |
| 20260905125130 | 78 | 154 | 0.0 | 0.0 | 0.00 | 1.76 | 0.00 | 95 | 1012.9 |